Zurück zum Katalog

STARLINK-37837

AktivKommunikationSSO
NORAD 69665·PAYLOAD·🇺🇸 United States

Gestartet Jun 21, 2026 von Vandenberg Space Force Base

Loading…

Nächste Überflüge (nächste 24 Stunden)

TLE

AktuellSource: CelesTrak SupGP

Epoche: Sep 15, 2026, 03:07 UTC

1 69665C 26143S   26258.13034722 -.00011814  00000+0 -36674-3 0  2586
2 69665  97.2844 301.3154 0001335  87.2634 295.2094 15.33445294    19

Verfolge STARLINK-37837 in Echtzeit mit AllMySat

Download on the App Store